Date String (YYYY-MM-DD hh:mm:ss) UTC,Instrument flags,absolute air pressure of the measurement (hPa),sample flow rate (lpm),inlet stack bypass flow (lpm),air temperature of the measurement (°C),ambient temperature measured by the external sensor (°C),aerosol sample conditioner tube jacket temperature (°C),OPC LED temperature (°C),internal box temperature (°C),relative humidity of the measurement (%),span deviation,mass concentration of particles derived from Lorenz-Mie calculation of OPC scattering (μg/m³),mass concentration of particles derived from Lorenz-Mie calculation of OPC scattering (μg/m³),mass concentration of particles derived from Lorenz-Mie calculation of OPC scattering (μg/m³)
DateTimeUTC,F1_M11,P_M11,Q1_M11,Q2_M11,T1_M11,T2_M11,T3_M11,T4_M11,T5_M11,U1_M11,ZSPAN_M11,X0_M11,X2_M11,X1_M11
2023-09-24 01:00:00,SystemResetWarning,0829.4,5.01,000.00,028.1,023.9,000.0,036.4,029.4,12.2,0000.0,0015.56,0004.17,0002.79
2023-09-24 01:01:00,SystemResetWarning,0829.4,5.02,000.00,028.0,024.1,000.0,036.4,029.3,12.3,0000.0,0015.52,0004.18,0002.79
2023-09-24 01:02:00,SystemResetWarning,0829.5,4.99,000.00,028.0,024.5,000.0,036.4,029.3,12.4,0000.0,0015.27,0004.24,0002.80
2023-09-24 01:03:00,SystemResetWarning,0829.6,5.00,000.00,027.9,025.0,000.0,036.4,029.4,12.3,0000.0,0015.93,0004.24,0002.80
2023-09-24 01:04:00,SystemResetWarning,0829.7,4.99,000.00,027.9,025.4,000.0,036.4,029.4,12.6,0000.0,0015.98,0004.27,0002.84
2023-09-24 01:05:00,SystemResetWarning,0829.7,5.01,000.00,028.0,025.8,000.0,036.4,029.5,12.7,0000.0,0014.68,0004.29,0002.85
2023-09-24 01:06:00,SystemResetWarning,0829.7,5.00,000.00,028.0,026.1,000.0,036.4,029.6,12.6,0000.0,0013.96,0004.27,0002.83
2023-09-24 01:07:00,SystemResetWarning,0829.7,4.99,000.00,028.0,026.4,000.0,036.4,029.7,12.6,0000.0,0013.34,0004.30,0002.85
2023-09-24 01:08:00,SystemResetWarning,0829.7,5.00,000.00,028.1,026.6,000.0,036.4,029.8,12.6,0000.0,0013.57,0004.31,0002.86
2023-09-24 01:09:00,SystemResetWarning,0829.7,4.99,000.00,028.1,026.8,000.0,036.4,029.8,12.6,0000.0,0013.67,0004.32,0002.85
2023-09-24 01:10:00,SystemResetWarning,0829.7,5.00,000.00,028.2,027.0,000.0,036.4,029.9,12.5,0000.0,0014.21,0004.33,0002.84
2023-09-24 01:11:00,SystemResetWarning,0829.8,5.01,000.00,028.2,027.1,000.0,036.4,029.9,12.5,0000.0,0015.20,0004.33,0002.84
2023-09-24 01:12:00,SystemResetWarning,0829.8,5.01,000.00,028.2,027.2,000.0,036.5,030.0,12.4,0000.0,0015.60,0004.37,0002.85
2023-09-24 01:13:00,SystemResetWarning,0829.8,4.99,000.00,028.3,027.3,000.0,036.5,030.1,12.2,0000.0,0015.37,0004.37,0002.86
2023-09-24 01:14:00,SystemResetWarning,0829.8,4.99,000.00,028.3,027.4,000.0,036.5,030.1,12.0,0000.0,0016.34,0004.38,0002.87
2023-09-24 01:15:00,SystemResetWarning,0829.8,4.99,000.00,028.4,027.0,000.0,036.5,030.0,12.1,0000.0,0017.20,0004.37,0002.87
2023-09-24 01:16:00,SystemResetWarning,0829.8,5.00,000.00,028.3,025.2,000.0,036.5,029.7,12.1,0000.0,0017.58,0004.39,0002.87
2023-09-24 01:17:00,SystemResetWarning,0829.8,5.01,000.00,028.2,024.6,000.0,036.4,029.5,12.1,0000.0,0017.50,0004.42,0002.89
2023-09-24 01:18:00,SystemResetWarning,0829.7,5.00,000.00,028.1,024.8,000.0,036.4,029.4,12.2,0000.0,0017.66,0004.41,0002.92
2023-09-24 01:19:00,SystemResetWarning,0829.8,5.00,000.00,028.0,025.1,000.0,036.4,029.4,12.3,0000.0,0019.31,0004.44,0002.93
2023-09-24 01:20:00,SystemResetWarning,0829.8,5.00,000.00,028.0,025.4,000.0,036.4,029.5,12.3,0000.0,0019.36,0004.45,0002.94
2023-09-24 01:21:00,SystemResetWarning,0829.8,5.01,000.00,028.0,025.8,000.0,036.4,029.6,12.4,0000.0,0018.61,0004.45,0002.95
2023-09-24 01:22:00,SystemResetWarning,0829.8,5.00,000.00,028.1,026.1,000.0,036.4,029.6,12.4,0000.0,0017.93,0004.48,0002.97
2023-09-24 01:23:00,SystemResetWarning,0829.8,4.99,000.00,028.1,026.3,000.0,036.4,029.7,12.3,0000.0,0018.03,0004.43,0002.97
2023-09-24 01:24:00,SystemResetWarning,0829.8,5.00,000.00,028.1,026.6,000.0,036.4,029.8,12.3,0000.0,0018.74,0004.41,0002.97
2023-09-24 01:25:00,SystemResetWarning,0829.8,5.00,000.00,028.2,026.8,000.0,036.4,029.8,12.3,0000.0,0017.90,0004.43,0002.97
2023-09-24 01:26:00,SystemResetWarning,0829.8,5.00,000.00,028.2,026.9,000.0,036.5,029.9,12.3,0000.0,0017.15,0004.44,0002.94
2023-09-24 01:27:00,SystemResetWarning,0829.9,5.00,000.00,028.2,027.1,000.0,036.5,029.9,12.3,0000.0,0018.08,0004.52,0002.93
2023-09-24 01:28:00,SystemResetWarning,0829.8,5.00,000.00,028.3,027.2,000.0,036.5,030.0,12.3,0000.0,0019.05,0004.55,0002.93
2023-09-24 01:29:00,SystemResetWarning,0829.8,5.00,000.00,028.3,027.3,000.0,036.5,030.1,12.3,0000.0,0019.27,0004.54,0002.91
2023-09-24 01:30:00,SystemResetWarning,0829.8,4.99,000.00,028.4,027.4,000.0,036.6,030.1,12.3,0000.0,0018.16,0004.49,0002.90
2023-09-24 01:31:00,SystemResetWarning,0829.8,4.99,000.00,028.4,027.5,000.0,036.6,030.1,12.2,0000.0,0017.97,0004.46,0002.91
2023-09-24 01:32:00,SystemResetWarning,0829.8,5.00,000.00,028.4,026.3,000.0,036.6,029.8,12.0,0000.0,0018.68,0004.48,0002.93
2023-09-24 01:33:00,SystemResetWarning,0829.8,5.01,000.00,028.2,024.2,000.0,036.5,029.4,12.0,0000.0,0018.80,0004.47,0002.92
2023-09-24 01:34:00,SystemResetWarning,0829.8,5.00,000.00,028.1,023.6,000.0,036.4,029.3,12.0,0000.0,0017.92,0004.44,0002.92
2023-09-24 01:35:00,SystemResetWarning,0829.9,5.01,000.00,028.0,023.8,000.0,036.4,029.2,12.0,0000.0,0017.97,0004.46,0002.93
2023-09-24 01:36:00,SystemResetWarning,0830.0,5.01,000.00,027.9,024.2,000.0,036.4,029.2,12.2,0000.0,0018.74,0004.45,0002.91
2023-09-24 01:37:00,SystemResetWarning,0830.0,5.00,000.00,027.9,024.7,000.0,036.4,029.3,12.2,0000.0,0018.20,0004.42,0002.90
2023-09-24 01:38:00,SystemResetWarning,0830.0,5.00,000.00,027.9,025.1,000.0,036.3,029.4,12.0,0000.0,0017.76,0004.38,0002.90
2023-09-24 01:39:00,SystemResetWarning,0830.0,5.01,000.00,027.9,025.5,000.0,036.3,029.4,12.1,0000.0,0017.74,0004.34,0002.91
2023-09-24 01:40:00,SystemResetWarning,0830.1,5.00,000.00,027.9,025.8,000.0,036.3,029.5,12.3,0000.0,0017.71,0004.36,0002.91
2023-09-24 01:41:00,SystemResetWarning,0830.1,5.00,000.00,027.9,026.1,000.0,036.3,029.5,12.1,0000.0,0018.74,0004.36,0002.91
2023-09-24 01:42:00,SystemResetWarning,0830.1,5.00,000.00,027.9,026.3,000.0,036.3,029.6,11.8,0000.0,0018.36,0004.41,0002.89
2023-09-24 01:43:00,SystemResetWarning,0830.1,5.00,000.00,028.0,026.5,000.0,036.3,029.7,12.1,0000.0,0017.36,0004.42,0002.86
2023-09-24 01:44:00,SystemResetWarning,0830.1,5.00,000.00,028.0,026.7,000.0,036.3,029.7,12.1,0000.0,0016.94,0004.39,0002.86
2023-09-24 01:45:00,SystemResetWarning,0830.1,5.00,000.00,028.1,026.8,000.0,036.3,029.8,12.0,0000.0,0017.09,0004.40,0002.86
2023-09-24 01:46:00,SystemResetWarning,0830.2,5.00,000.00,028.1,027.0,000.0,036.3,029.8,11.9,0000.0,0017.48,0004.38,0002.83
2023-09-24 01:47:00,SystemResetWarning,0830.2,5.00,000.00,028.1,027.1,000.0,036.4,029.9,12.0,0000.0,0016.82,0004.40,0002.83
2023-09-24 01:48:00,SystemResetWarning,0830.3,5.00,000.00,028.2,027.2,000.0,036.4,029.9,12.0,0000.0,0016.99,0004.47,0002.84
2023-09-24 01:49:00,SystemResetWarning,0830.2,4.99,000.00,028.2,027.3,000.0,036.4,030.0,11.8,0000.0,0016.69,0004.51,0002.87
2023-09-24 01:50:00,SystemResetWarning,0830.2,4.99,000.00,028.3,027.3,000.0,036.4,030.0,11.7,0000.0,0017.02,0004.52,0002.87
2023-09-24 01:51:00,SystemResetWarning,0830.3,5.01,000.00,028.3,027.4,000.0,036.5,030.1,11.7,0000.0,0017.75,0004.51,0002.87
2023-09-24 01:52:00,SystemResetWarning,0830.3,5.01,000.00,028.4,027.4,000.0,036.5,030.1,11.7,0000.0,0017.60,0004.57,0002.88
2023-09-24 01:53:00,SystemResetWarning,0830.3,5.00,000.00,028.4,027.5,000.0,036.5,030.2,11.7,0000.0,0018.03,0004.52,0002.89
2023-09-24 01:54:00,SystemResetWarning,0830.3,5.00,000.00,028.4,027.5,000.0,036.6,030.2,11.7,0000.0,0018.12,0004.54,0002.89
2023-09-24 01:55:00,SystemResetWarning,0830.3,4.98,000.00,028.4,026.1,000.0,036.5,029.9,11.7,0000.0,0018.50,0004.54,0002.89
2023-09-24 01:56:00,SystemResetWarning,0830.3,5.01,000.00,028.3,024.7,000.0,036.5,029.7,11.8,0000.0,0018.41,0004.57,0002.89
2023-09-24 01:57:00,SystemResetWarning,0830.3,5.02,000.00,028.2,024.6,000.0,036.5,029.6,11.8,0000.0,0018.44,0004.63,0002.92
2023-09-24 01:58:00,SystemResetWarning,0830.3,5.00,000.00,028.1,024.9,000.0,036.5,029.5,11.9,0000.0,0017.85,0004.65,0002.94
2023-09-24 01:59:00,SystemResetWarning,0830.3,5.00,000.00,028.1,025.2,000.0,036.5,029.5,12.0,0000.0,0018.00,0004.59,0002.95
